Content
SEND FEEDBACK

Daily
Averages
Monthly
Summary
United States of America

SANDUSKY, MICHIGAN


Home > North America > United States > Michigan
Elevation: 770 feet     Latitude: 43 25N     Longitude: 082 50W

WEATHER
 
SELECT A DAY
Number of Records: 431,800;   Date Range: 3/27/97 - 8/25/14
 
SHARE

PRINT THIS DATA

[ ← Previous Day ]
WEATHER ALMANAC - JANUARY 19, 2013
[ Next Day → ]
[ °C ]   °F
Weather ElementAverageHighLow
Temperature38.3 °F41.4 °F (6:34 pm)35.6 °F (1:13 am)
Dewpoint30.4 °F34.9 °F (11:14 pm)23.4 °F (12:34 am)
Humidity73.2 %83 % (11:14 pm)61 % (12:34 am)
Barometer29.72 in29.86 in (9:34 am)29.42 in (11:54 pm)
Wind Speed14.1 mph23 mph (8:14 pm)
Wind Gust33.4 mph (8:54 pm)
Weather ElementAverage
Visibility10 mi
Wind DirectionSW (223.8 °)

Weather ElementTotal
Precipitation---
Heating Degree Days26.5 (Base 65)
Averaged from 71 records on January 19, 2013
WEATHER CONDITIONS BREAKOUT
WIND DIRECTION BREAKOUT
WEATHER BY HOUR - JANUARY 19, 2013
[ °C ]   °F
Local TimeTemperatureDewpointHumidityBarometerVisibilityWind DirectionWind SpeedGust SpeedPrecipitationEventsConditions
12:34 AM35.8 °F23.4 °F61 %29.83 in10.0 miSW (230°)17.3 mph25.3 mphClear
12:54 AM35.8 °F23.7 °F62 %29.83 in10.0 miSW (220°)16.1 mph24.2 mphClear
1:13 AM35.6 °F23.9 °F62 %29.83 in10.0 miSW (230°)13.8 mph23.0 mphClear
1:34 AM36.0 °F24.4 °F63 %29.82 in10.0 miSW (230°)16.1 mph25.3 mphClear
1:54 AM36.1 °F24.8 °F63 %29.82 in10.0 miSW (230°)15.0 mph27.6 mphClear
2:13 AM35.8 °F25.2 °F65 %29.83 in10.0 miSW (230°)17.3 mph23.0 mphClear
2:34 AM36.1 °F25.5 °F65 %29.83 in10.0 miSW (230°)13.8 mph21.9 mphClear
2:54 AM36.5 °F25.7 °F65 %29.83 in10.0 miSW (230°)12.7 mph26.5 mphClear
3:14 AM36.5 °F26.1 °F66 %29.83 in10.0 miSW (230°)17.3 mph24.2 mphClear
3:34 AM37.0 °F26.4 °F65 %29.83 in10.0 miSW (230°)15.0 mph23.0 mphScattered Clouds
3:54 AM37.0 °F26.6 °F66 %29.82 in10.0 miSW (230°)18.4 mph25.3 mphOvercast
4:14 AM37.4 °F27.3 °F67 %29.82 in10.0 miWSW (240°)17.3 mph24.2 mphMostly Cloudy
4:34 AM37.4 °F27.5 °F67 %29.82 in10.0 miSW (230°)17.3 mph25.3 mphMostly Cloudy
4:54 AM37.4 °F27.7 °F68 %29.81 in10.0 miSW (230°)18.4 mph29.9 mphOvercast
5:14 AM37.2 °F28.0 °F69 %29.81 in10.0 miSW (230°)17.3 mph23.0 mphOvercast
5:34 AM37.4 °F28.0 °F69 %29.81 in10.0 miSW (230°)15.0 mph26.5 mphOvercast
5:54 AM37.4 °F28.2 °F69 %29.81 in10.0 miSW (230°)15.0 mph21.9 mphOvercast
6:14 AM37.0 °F28.4 °F71 %29.82 in10.0 miWSW (240°)12.7 mph20.7 mphOvercast
6:34 AM37.4 °F28.8 °F71 %29.82 in10.0 miSW (230°)15.0 mph24.2 mphOvercast
6:54 AM37.0 °F28.9 °F73 %29.82 in10.0 miSW (230°)16.1 mph20.7 mphOvercast
7:14 AM37.0 °F29.1 °F73 %29.83 in10.0 miSW (230°)13.8 mph20.7 mphOvercast
7:34 AM37.0 °F29.3 °F74 %29.83 in10.0 miSW (230°)13.8 mph20.7 mphOvercast
7:54 AM37.0 °F29.3 °F74 %29.83 in10.0 miSW (230°)13.8 mph18.4 mphScattered Clouds
8:14 AM36.9 °F29.3 °F74 %29.84 in10.0 miSW (230°)15.0 mph23.0 mphScattered Clouds
8:34 AM36.9 °F29.7 °F75 %29.84 in10.0 miSW (230°)13.8 mph23.0 mphMostly Cloudy
8:54 AM36.9 °F29.7 °F75 %29.85 in10.0 miSW (230°)11.5 mph21.9 mphMostly Cloudy
9:14 AM37.0 °F30.0 °F76 %29.85 in10.0 miSW (230°)13.8 mphOvercast
9:34 AM37.4 °F30.0 °F75 %29.86 in10.0 miSW (230°)11.5 mph21.9 mphOvercast
9:54 AM37.4 °F30.2 °F75 %29.86 in10.0 miSW (230°)13.8 mph21.9 mphOvercast
10:14 AM37.6 °F30.6 °F76 %29.86 in10.0 miSW (230°)15.0 mph21.9 mphOvercast
10:34 AM37.9 °F30.9 °F76 %29.86 in10.0 miSW (230°)13.8 mph18.4 mphOvercast
10:54 AM38.3 °F30.9 °F75 %29.86 in10.0 miSW (230°)15.0 mphOvercast
11:14 AM38.5 °F31.1 °F75 %29.85 in10.0 miSW (230°)11.5 mph21.9 mphOvercast
11:34 AM38.5 °F31.1 °F75 %29.83 in10.0 miSW (230°)12.7 mph17.3 mphOvercast
11:54 AM38.7 °F31.1 °F74 %29.82 in10.0 miSW (230°)13.8 mphOvercast
12:14 PM39.2 °F31.5 °F74 %29.81 in10.0 miSW (230°)11.5 mphOvercast
12:34 PM39.0 °F31.3 °F74 %29.80 in10.0 miSW (230°)12.7 mph17.3 mphLight Drizzle
12:54 PM38.3 °F32.0 °F78 %29.78 in10.0 miSW (230°)12.7 mph16.1 mphRainLight Rain
1:14 PM37.9 °F32.4 °F80 %29.77 in10.0 miSSW (210°)10.4 mphRainLight Rain
1:34 PM37.9 °F32.7 °F81 %29.75 in10.0 miSSW (200°)8.1 mphRainLight Rain
1:54 PM38.3 °F32.4 °F79 %29.73 in10.0 miSSW (210°)9.2 mphOvercast
2:15 PM38.3 °F32.0 °F78 %29.72 in10.0 miSSW (200°)9.2 mphOvercast
2:34 PM38.3 °F32.0 °F78 %29.70 in10.0 miSouth (180°)8.1 mphOvercast
2:54 PM38.5 °F32.0 °F78 %29.70 in10.0 miSSW (200°)9.2 mphOvercast
3:15 PM38.8 °F32.0 °F76 %29.68 in10.0 miSouth (190°)6.9 mphOvercast
3:34 PM38.7 °F32.0 °F77 %29.67 in10.0 miSSW (200°)6.9 mphOvercast
3:54 PM38.3 °F32.0 °F78 %29.66 in10.0 miSSW (210°)6.9 mphOvercast
4:14 PM38.7 °F32.0 °F77 %29.67 in10.0 miSW (230°)5.8 mphOvercast
4:34 PM37.4 °F32.0 °F81 %29.65 in10.0 miSouth (190°)8.1 mphLight Drizzle
4:55 PM37.4 °F32.2 °F81 %29.63 in10.0 miSouth (190°)6.9 mphOvercast
5:14 PM38.1 °F32.2 °F79 %29.62 in10.0 miSSW (200°)6.9 mphOvercast
5:34 PM38.5 °F32.0 °F78 %29.61 in10.0 miSSW (200°)8.1 mphOvercast
5:55 PM38.8 °F32.0 °F76 %29.60 in10.0 miSSW (210°)8.1 mphOvercast
6:14 PM40.1 °F32.4 °F74 %29.60 in10.0 miSW (220°)11.5 mph19.6 mphMostly Cloudy
6:34 PM41.4 °F32.2 °F70 %29.59 in10.0 miSW (220°)12.7 mph19.6 mphMostly Cloudy
6:54 PM40.6 °F32.2 °F72 %29.58 in10.0 miSW (220°)11.5 mph17.3 mphScattered Clouds
7:14 PM41.2 °F32.0 °F70 %29.58 in10.0 miSW (230°)15.0 mph19.6 mphClear
7:35 PM41.0 °F32.2 °F71 %29.57 in10.0 miSW (220°)15.0 mph21.9 mphClear
7:54 PM41.2 °F32.5 °F71 %29.56 in10.0 miSW (220°)13.8 mph25.3 mphClear
8:14 PM41.0 °F32.5 °F72 %29.54 in10.0 miSW (220°)23.0 mph32.2 mphClear
8:35 PM41.4 °F32.9 °F72 %29.53 in10.0 miSW (230°)18.4 mph29.9 mphScattered Clouds
8:54 PM41.2 °F32.9 °F72 %29.51 in10.0 miSW (230°)18.4 mph33.4 mphScattered Clouds
9:14 PM41.2 °F33.1 °F73 %29.50 in10.0 miSW (230°)19.6 mph28.8 mphScattered Clouds
9:34 PM41.4 °F33.4 °F73 %29.49 in10.0 miWSW (240°)23.0 mph31.1 mphMostly Cloudy
9:54 PM41.2 °F33.8 °F75 %29.49 in10.0 miWSW (240°)21.9 mph32.2 mphOvercast
10:15 PM41.2 °F34.0 °F76 %29.48 in10.0 miWSW (240°)21.9 mph29.9 mphOvercast
10:34 PM41.0 °F33.8 °F76 %29.47 in10.0 miSW (230°)18.4 mph31.1 mphOvercast
10:54 PM40.3 °F34.3 °F79 %29.46 in10.0 miSW (230°)20.7 mph29.9 mphLight Drizzle
11:14 PM39.7 °F34.9 °F83 %29.45 in10.0 miSW (230°)18.4 mph28.8 mphLight Drizzle
11:34 PM40.1 °F34.9 °F82 %29.43 in10.0 miSW (230°)19.6 mph26.5 mphOvercast
11:54 PM40.1 °F34.7 °F81 %29.42 in10.0 miWSW (240°)23.0 mph28.8 mphOvercast
Hourly data recorded from KBAX, located miles away from Sandusky, Michigan







STORIES FROM OUR PARTNERS